Simultaneous Nadir Overpasses (SNOs) Predictions

Prediction of SNOs between AQUA and METOP-B Satellite Orbit:

Table of predicted SNOs for the next 14.0 days since TLE Epoch: 4/5/2019
Index Date (AQUA) Time (AQUA) Lat,Lon (AQUA) SZA (AQUA ) Date (METOP-B) Time (METOP-B) Lat,Lon (METOP-B) SZA (METOP-B ) Distance(km) Time Diff (sec)
1 04/07/2019 21:54:33 -73.87, 25.62 113.11 04/07/2019 21:53:44 -73.86, 25.69 113.10 2.29 49
2 04/07/2019 22:44:01 73.90,-166.82 66.92 04/07/2019 22:44:23 73.92,-166.84 66.94 2.34 22
3 04/10/2019 17:28:46 -73.83, 92.13 114.20 04/10/2019 17:28:07 -73.85, 92.06 114.17 2.87 39
4 04/10/2019 18:18:15 73.92,-100.42 65.88 04/10/2019 18:18:46 73.90,-100.48 65.87 2.59 31
5 04/13/2019 13:03:01 -73.86, 158.52 115.21 04/13/2019 13:02:30 -73.88, 158.55 115.18 2.81 31
6 04/13/2019 13:52:30 73.94, -34.03 64.87 04/13/2019 13:53:09 73.93, -34.01 64.86 1.41 39
7 04/16/2019 08:37:16 -73.89,-135.12 116.19 04/16/2019 08:36:54 -73.86,-135.09 116.21 3.18 22
8 04/16/2019 09:26:44 73.92, 32.46 63.84 04/16/2019 09:27:33 73.91, 32.34 63.82 3.83 49
9 04/19/2019 03:21:54 73.39, 124.77 62.30 04/19/2019 03:20:46 73.30, 122.68 62.30 67.08 68
10 04/19/2019 04:11:29 -73.88, -68.65 117.19 04/19/2019 04:11:16 -73.89, -68.62 117.18 1.65 13
11 04/19/2019 05:00:58 73.96, 98.81 62.89 04/19/2019 05:01:55 73.93, 98.81 62.85 3.19 57




NCC Satellite Simultaneous Nadir Overpasses (SNOs) Prediction Service
